User: anonymous
Location: Natural Bridges National Monument
(37.6093°N, 109.9767°W)
Time: 13:04:15
(UTC-06:00)
Language:

USA 32 - Orbit

View from above orbital plane
View from above orbital plane
View from above satellite
View from above satellite

Ground track
Ground track

The orbit data is extracted from the following two-line orbital elements,

1 19460U 88078A   14092.93711896 0.00000350  00000-0  12768-3 0    09
2 19460  84.9956 181.8158 0003668 248.2770 111.7228 14.33155600    08
Epoch (UTC): 02 April 2014 22:29:27
Eccentricity: 0.0003668
inclination: 84.9956°
perigee height: 778 km
apogee height: 784 km
right ascension of ascending node: 181.8158°
argument of perigee: 248.2770°
revolutions per day: 14.33155600
mean anomaly at epoch: 111.7228°
orbit number at epoch: 0

The dashed part of the orbit path shows where the satellite is in the earth's shadow,  

DLR